• Em Portugal
  • Lista de países
  • Para 7 dias
  • Temperatura da água
  • Mapas de satélite
  • Mapa do tempo
  • Widgets de tempo
  • user-avatar
    Iniciar Sessão

    Previsão horária em São Juão

    Hoje, 23 Maio, Quarta-feira

    Tempo Temperatura Precipitação Vento Pressão Humidade
    00:00 +14°C° 0 mm 1 m/s 707 mmHg 61%
    01:00 +13°C° 0 mm 1 m/s 707 mmHg 63%
    02:00 +13°C° 0 mm 1 m/s 707 mmHg 65%
    03:00 +12°C° 0 mm 1 m/s 707 mmHg 67%
    04:00 +12°C° 0 mm 1 m/s 707 mmHg 69%
    05:00 +11°C° 0 mm 0 m/s 708 mmHg 68%
    06:00 +12°C° 0 mm 0 m/s 708 mmHg 67%
    07:00 +12°C° 0 mm 0 m/s 708 mmHg 66%
    08:00 +15°C° 0 mm 1 m/s 709 mmHg 59%
    09:00 +18°C° 0 mm 1 m/s 709 mmHg 51%
    10:00 +20°C° 0 mm 1 m/s 709 mmHg 44%
    11:00 +21°C° 0 mm 1 m/s 709 mmHg 41%
    12:00 +20°C° 0 mm 2 m/s 709 mmHg 37%
    13:00 +21°C° 0 mm 2 m/s 708 mmHg 34%
    14:00 +21°C° 0 mm 2 m/s 708 mmHg 35%
    15:00 +21°C° 0 mm 2 m/s 709 mmHg 36%
    16:00 +21°C° 0 mm 2 m/s 709 mmHg 37%
    17:00 +19°C° 0 mm 2 m/s 709 mmHg 43%
    18:00 +18°C° 0 mm 2 m/s 709 mmHg 48%
    19:00 +18°C° 0 mm 1 m/s 710 mmHg 54%
    20:00 +16°C° 0 mm 1 m/s 710 mmHg 57%
    21:00 +16°C° 0 mm 1 m/s 710 mmHg 59%
    22:00 +14°C° 0 mm 0 m/s 710 mmHg 62%
    23:00 +15°C° 0 mm 1 m/s 710 mmHg 62%

    Amanhã, 24 Maio, Quinta-feira

    Tempo Temperatura Precipitação Vento Pressão Humidade
    00:00 +14°C° 0 mm 1 m/s 710 mmHg 63%
    01:00 +14°C° 0 mm 1 m/s 710 mmHg 64%
    02:00 +14°C° 0 mm 1 m/s 709 mmHg 63%
    03:00 +14°C° 0 mm 1 m/s 709 mmHg 63%
    04:00 +13°C° 0 mm 2 m/s 709 mmHg 62%
    05:00 +14°C° 0 mm 1 m/s 709 mmHg 62%
    06:00 +14°C° 0 mm 1 m/s 709 mmHg 61%
    07:00 +14°C° 0 mm 1 m/s 709 mmHg 61%
    08:00 +16°C° 0 mm 1 m/s 709 mmHg 54%
    09:00 +19°C° 0 mm 1 m/s 710 mmHg 46%
    10:00 +20°C° 0 mm 2 m/s 710 mmHg 39%
    11:00 +21°C° 0 mm 2 m/s 709 mmHg 35%
    12:00 +23°C° 0 mm 2 m/s 709 mmHg 31%
    13:00 +24°C° 0 mm 2 m/s 708 mmHg 28%
    14:00 +24°C° 0 mm 2 m/s 708 mmHg 28%
    15:00 +24°C° 0 mm 1 m/s 708 mmHg 28%
    16:00 +24°C° 0 mm 1 m/s 707 mmHg 29%
    17:00 +22°C° 0 mm 1 m/s 708 mmHg 34%
    18:00 +20°C° 0 mm 1 m/s 708 mmHg 39%
    19:00 +19°C° 0 mm 1 m/s 708 mmHg 44%
    20:00 +18°C° 0 mm 1 m/s 708 mmHg 46%
    21:00 +16°C° 0 mm 1 m/s 708 mmHg 48%
    22:00 +16°C° 0 mm 1 m/s 708 mmHg 50%
    23:00 +16°C° 0 mm 1 m/s 708 mmHg 50%

    Depois de amanhã, 25 Maio, Sexta-feira

    Tempo Temperatura Precipitação Vento Pressão Humidade
    00:00 +15°C° 0 mm 1 m/s 708 mmHg 50%
    01:00 +15°C° 0 mm 1 m/s 708 mmHg 51%
    02:00 +14°C° 0 mm 1 m/s 707 mmHg 53%
    03:00 +14°C° 0 mm 1 m/s 707 mmHg 55%
    04:00 +13°C° 0 mm 1 m/s 707 mmHg 56%
    05:00 +14°C° 0 mm 1 m/s 707 mmHg 55%
    06:00 +14°C° 0 mm 1 m/s 707 mmHg 54%
    07:00 +14°C° 0 mm 1 m/s 708 mmHg 53%
    08:00 +18°C° 0 mm 1 m/s 708 mmHg 45%
    09:00 +19°C° 0 mm 2 m/s 708 mmHg 37%
    10:00 +23°C° 0 mm 2 m/s 708 mmHg 28%
    11:00 +24°C° 0 mm 3 m/s 707 mmHg 25%
    12:00 +25°C° 0 mm 3 m/s 707 mmHg 23%
    13:00 +26°C° 0 mm 3 m/s 706 mmHg 20%
    14:00 +25°C° 0 mm 2 m/s 705 mmHg 20%
    15:00 +25°C° 0 mm 2 m/s 705 mmHg 21%
    16:00 +25°C° 0 mm 1 m/s 705 mmHg 21%
    17:00 +23°C° 0 mm 1 m/s 705 mmHg 24%
    18:00 +21°C° 0 mm 1 m/s 705 mmHg 27%
    19:00 +19°C° 0 mm 1 m/s 705 mmHg 31%
    20:00 +18°C° 0 mm 2 m/s 705 mmHg 30%
    21:00 +18°C° 0 mm 2 m/s 705 mmHg 30%
    22:00 +18°C° 0 mm 2 m/s 705 mmHg 29%
    23:00 +17°C° 0 mm 3 m/s 704 mmHg 29%

    26 Maio, Sábado

    Tempo Temperatura Precipitação Vento Pressão Humidade
    00:00 +17°C° 0 mm 3 m/s 704 mmHg 29%
    01:00 +17°C° 0 mm 3 m/s 704 mmHg 29%
    02:00 +17°C° 0 mm 3 m/s 704 mmHg 28%
    03:00 +17°C° 0 mm 3 m/s 703 mmHg 28%
    04:00 +16°C° 0 mm 3 m/s 703 mmHg 27%
    05:00 +16°C° 0 mm 3 m/s 703 mmHg 27%
    06:00 +16°C° 0 mm 3 m/s 704 mmHg 27%
    07:00 +16°C° 0 mm 2 m/s 704 mmHg 27%
    08:00 +19°C° 0 mm 2 m/s 704 mmHg 24%
    09:00 +21°C° 0 mm 2 m/s 705 mmHg 21%
    10:00 +24°C° 0 mm 1 m/s 705 mmHg 19%
    11:00 +25°C° 0 mm 2 m/s 705 mmHg 18%
    12:00 +26°C° 0 mm 2 m/s 704 mmHg 17%
    13:00 +27°C° 0 mm 2 m/s 704 mmHg 16%
    14:00 +26°C° 0 mm 3 m/s 704 mmHg 19%
    15:00 +25°C° 0 mm 3 m/s 704 mmHg 22%
    16:00 +24°C° 0 mm 3 m/s 704 mmHg 26%
    17:00 +22°C° 0 mm 3 m/s 704 mmHg 30%
    18:00 +20°C° 0 mm 3 m/s 705 mmHg 35%
    19:00 +19°C° 0 mm 3 m/s 706 mmHg 40%
    20:00 +18°C° 0 mm 3 m/s 706 mmHg 41%
    21:00 +17°C° 0 mm 2 m/s 706 mmHg 43%
    22:00 +17°C° 0 mm 2 m/s 707 mmHg 44%
    23:00 +16°C° 0 mm 2 m/s 706 mmHg 45%

    27 Maio, Domingo

    Tempo Temperatura Precipitação Vento Pressão Humidade
    00:00 +16°C° 0 mm 2 m/s 706 mmHg 47%
    01:00 +15°C° 0 mm 2 m/s 706 mmHg 48%
    02:00 +15°C° 0 mm 2 m/s 706 mmHg 50%
    03:00 +14°C° 0 mm 2 m/s 705 mmHg 51%
    04:00 +14°C° 0 mm 2 m/s 705 mmHg 53%
    05:00 +14°C° 0 mm 1 m/s 705 mmHg 52%
    06:00 +14°C° 0 mm 1 m/s 706 mmHg 52%
    07:00 +14°C° 0 mm 1 m/s 706 mmHg 51%
    08:00 +16°C° 0 mm 1 m/s 706 mmHg 45%
    09:00 +19°C° 0 mm 2 m/s 706 mmHg 38%
    10:00 +21°C° 0 mm 2 m/s 706 mmHg 32%
    11:00 +22°C° 0 mm 3 m/s 705 mmHg 28%
    12:00 +25°C° 0 mm 3 m/s 704 mmHg 24%
    13:00 +26°C° 0 mm 4 m/s 703 mmHg 20%
    14:00 +26°C° 0 mm 3 m/s 703 mmHg 20%
    15:00 +25°C° 0 mm 3 m/s 702 mmHg 21%
    16:00 +25°C° 0 mm 3 m/s 702 mmHg 21%
    17:00 +24°C° 0 mm 3 m/s 702 mmHg 23%
    18:00 +22°C° 0 mm 3 m/s 702 mmHg 25%
    19:00 +20°C° 0 mm 3 m/s 702 mmHg 27%
    20:00 +20°C° 0 mm 3 m/s 702 mmHg 27%
    21:00 +20°C° 0 mm 4 m/s 701 mmHg 28%
    22:00 +20°C° 0 mm 4 m/s 701 mmHg 28%
    23:00 +20°C° 0 mm 4 m/s 701 mmHg 28%

    28 Maio, Segunda-feira

    Tempo Temperatura Precipitação Vento Pressão Humidade
    00:00 +20°C° 0 mm 4 m/s 701 mmHg 27%
    01:00 +20°C° 0 mm 5 m/s 700 mmHg 27%
    02:00 +19°C° 0 mm 5 m/s 700 mmHg 26%
    03:00 +19°C° 0 mm 5 m/s 699 mmHg 26%
    04:00 +19°C° 0 mm 5 m/s 698 mmHg 25%
    05:00 +20°C° 0 mm 5 m/s 699 mmHg 23%
    06:00 +20°C° 0 mm 5 m/s 699 mmHg 21%
    07:00 +20°C° 0 mm 5 m/s 699 mmHg 19%
    08:00 +23°C° 0 mm 7 m/s 699 mmHg 14%
    09:00 +27°C° 0 mm 8 m/s 699 mmHg 10%
    10:00 +31°C° 0 mm 9 m/s 699 mmHg 5%
    11:00 +32°C° 0 mm 9 m/s 698 mmHg 5%
    12:00 +34°C° 0 mm 9 m/s 698 mmHg 4%
    13:00 +35°C° 0 mm 9 m/s 697 mmHg 3%
    14:00 +34°C° 0 mm 7 m/s 697 mmHg 3%
    15:00 +33°C° 0 mm 6 m/s 698 mmHg 4%
    16:00 +30°C° 0 mm 5 m/s 698 mmHg 4%
    17:00 +29°C° 0 mm 5 m/s 699 mmHg 6%
    18:00 +27°C° 0 mm 5 m/s 700 mmHg 8%
    19:00 +25°C° 0 mm 5 m/s 701 mmHg 10%
    20:00 +23°C° 0 mm 5 m/s 701 mmHg 13%
    21:00 +22°C° 0 mm 4 m/s 702 mmHg 16%
    22:00 +21°C° 0 mm 4 m/s 702 mmHg 20%
    23:00 +20°C° 0 mm 5 m/s 702 mmHg 28%
    Mostrar mais